Time,TemperatureF,DewpointF,PressureIn,WindDirection,WindDirectionDegrees,WindSpeedMPH,WindSpeedGustMPH,Humidity,HourlyPrecipIn,Conditions,Clouds,dailyrainin,SolarRadiationWatts/m^2,SoftwareType,DateUTC
2013-03-26 00:00:00,36.7,28.9,29.62,NE,36,0.0,0.0,73,0.00,,---,0.00,0.00,VWS V14.01,2013-03-26 04:00:00,
2013-03-26 00:05:00,36.6,28.8,29.62,NE,36,0.0,0.0,73,0.00,,---,0.00,0.00,VWS V14.01,2013-03-26 04:05:00,
2013-03-26 00:10:00,36.5,28.4,29.62,NE,36,0.0,0.0,72,0.00,,---,0.00,0.00,VWS V14.01,2013-03-26 04:10:00,
2013-03-26 00:15:00,36.5,28.7,29.62,NE,36,0.0,0.0,73,0.00,,---,0.00,0.00,VWS V14.01,2013-03-26 04:15:00,
2013-03-26 00:20:00,36.4,28.6,29.62,NE,36,0.0,0.0,73,0.00,,---,0.00,0.00,VWS V14.01,2013-03-26 04:20:00,
2013-03-26 00:25:00,36.3,28.8,29.62,NE,36,0.0,0.0,74,0.00,,---,0.00,0.00,VWS V14.01,2013-03-26 04:25:00,
2013-03-26 00:30:00,36.2,29.0,29.62,NE,36,0.0,0.0,75,0.00,,---,0.00,0.00,VWS V14.01,2013-03-26 04:30:00,
2013-03-26 00:35:00,36.1,29.0,29.62,NE,36,0.0,0.0,75,0.00,,---,0.00,0.00,VWS V14.01,2013-03-26 04:35:00,
2013-03-26 00:40:00,36.1,29.0,29.62,NE,36,0.0,0.0,75,0.00,,---,0.00,0.00,VWS V14.01,2013-03-26 04:40:00,
2013-03-26 00:45:00,36.0,28.9,29.62,NE,36,0.0,0.0,75,0.00,,---,0.00,0.00,VWS V14.01,2013-03-26 04:45:00,
2013-03-26 00:50:00,36.0,28.9,29.62,NE,36,0.0,0.0,75,0.00,,---,0.00,0.00,VWS V14.01,2013-03-26 04:50:00,
2013-03-26 00:55:00,35.9,29.1,29.63,NE,36,0.0,0.0,76,0.00,,---,0.00,0.00,VWS V14.01,2013-03-26 04:55:00,
2013-03-26 01:00:00,35.8,29.0,29.62,NE,36,0.0,0.0,76,0.00,,---,0.00,0.00,VWS V14.01,2013-03-26 05:00:00,
2013-03-26 01:05:00,35.6,29.1,29.62,NE,36,0.0,0.0,77,0.00,,---,0.00,0.00,VWS V14.01,2013-03-26 05:05:00,
2013-03-26 01:10:00,35.4,28.9,29.62,NE,36,0.0,0.0,77,0.00,,---,0.00,0.00,VWS V14.01,2013-03-26 05:10:00,
2013-03-26 01:15:00,35.3,28.8,29.62,NE,36,0.0,0.0,77,0.00,,---,0.00,0.00,VWS V14.01,2013-03-26 05:15:00,
2013-03-26 01:20:00,35.1,28.9,29.63,NE,36,0.0,0.0,78,0.00,,---,0.00,0.00,VWS V14.01,2013-03-26 05:20:00,
2013-03-26 01:25:00,34.9,28.8,29.63,NE,36,0.0,0.0,78,0.00,,---,0.00,0.00,VWS V14.01,2013-03-26 05:25:00,
2013-03-26 01:30:00,34.8,28.6,29.63,NE,36,0.0,0.0,78,0.00,,---,0.00,0.00,VWS V14.01,2013-03-26 05:30:00,
2013-03-26 01:35:00,34.7,28.9,29.63,NE,36,0.0,0.0,79,0.00,,---,0.00,0.00,VWS V14.01,2013-03-26 05:35:00,
2013-03-26 01:40:00,34.5,28.7,29.63,NE,36,0.0,0.0,79,0.00,,---,0.00,0.00,VWS V14.01,2013-03-26 05:40:00,
2013-03-26 01:45:00,34.4,28.6,29.63,NE,36,0.0,0.0,79,0.00,,---,0.00,0.00,VWS V14.01,2013-03-26 05:45:00,
2013-03-26 01:50:00,34.2,28.7,29.63,NE,36,0.0,0.0,80,0.00,,---,0.00,0.00,VWS V14.01,2013-03-26 05:50:00,
2013-03-26 01:55:00,34.1,28.6,29.63,NE,36,0.0,0.0,80,0.00,,---,0.00,0.00,VWS V14.01,2013-03-26 05:55:00,
2013-03-26 02:00:00,33.9,28.4,29.63,NE,36,0.0,0.0,80,0.00,,---,0.00,0.00,VWS V14.01,2013-03-26 06:00:00,
2013-03-26 02:05:00,33.9,28.7,29.63,NE,36,0.0,0.0,81,0.00,,---,0.00,0.00,VWS V14.01,2013-03-26 06:05:00,
2013-03-26 02:10:00,33.8,28.6,29.63,NE,36,0.0,0.0,81,0.00,,---,0.00,0.00,VWS V14.01,2013-03-26 06:10:00,
2013-03-26 02:15:00,33.8,28.3,29.63,West,264,1.0,3.0,80,0.00,,---,0.00,0.00,VWS V14.01,2013-03-26 06:15:00,
2013-03-26 02:20:00,34.0,28.2,29.63,West,269,0.0,6.0,79,0.00,,---,0.00,0.00,VWS V14.01,2013-03-26 06:20:00,
2013-03-26 02:25:00,34.3,28.2,29.64,WNW,297,2.0,6.0,78,0.00,,---,0.00,0.00,VWS V14.01,2013-03-26 06:25:00,
2013-03-26 02:30:00,34.4,28.3,29.64,WNW,297,0.0,6.0,78,0.00,,---,0.00,0.00,VWS V14.01,2013-03-26 06:30:00,
2013-03-26 02:35:00,34.4,28.3,29.64,WNW,297,0.0,0.0,78,0.00,,---,0.00,0.00,VWS V14.01,2013-03-26 06:35:00,
2013-03-26 02:40:00,34.2,28.1,29.64,WNW,297,0.0,0.0,78,0.00,,---,0.00,0.00,VWS V14.01,2013-03-26 06:40:00,
2013-03-26 02:45:00,34.1,28.0,29.64,WNW,297,0.0,0.0,78,0.00,,---,0.00,0.00,VWS V14.01,2013-03-26 06:45:00,
2013-03-26 02:50:00,34.0,27.9,29.64,WNW,297,0.0,0.0,78,0.00,,---,0.00,0.00,VWS V14.01,2013-03-26 06:50:00,
2013-03-26 02:55:00,33.9,27.8,29.64,WNW,297,0.0,0.0,78,0.00,,---,0.00,0.00,VWS V14.01,2013-03-26 06:55:00,
2013-03-26 03:00:00,33.9,28.1,29.64,WNW,297,0.0,0.0,79,0.00,,---,0.00,0.00,VWS V14.01,2013-03-26 07:00:00,
2013-03-26 03:05:00,33.9,28.1,29.64,WNW,297,0.0,0.0,79,0.00,,---,0.00,0.00,VWS V14.01,2013-03-26 07:05:00,
2013-03-26 03:10:00,33.9,28.1,29.64,WNW,297,0.0,0.0,79,0.00,,---,0.00,0.00,VWS V14.01,2013-03-26 07:10:00,
2013-03-26 03:15:00,33.7,28.2,29.64,WNW,297,0.0,0.0,80,0.00,,---,0.00,0.00,VWS V14.01,2013-03-26 07:15:00,
2013-03-26 03:20:00,33.6,28.1,29.64,WNW,297,0.0,0.0,80,0.00,,---,0.00,0.00,VWS V14.01,2013-03-26 07:20:00,
2013-03-26 03:25:00,33.4,27.9,29.64,WNW,297,0.0,0.0,80,0.00,,---,0.00,0.00,VWS V14.01,2013-03-26 07:25:00,
2013-03-26 03:30:00,33.4,28.2,29.64,WNW,297,0.0,0.0,81,0.00,,---,0.00,0.00,VWS V14.01,2013-03-26 07:30:00,
2013-03-26 03:35:00,33.3,28.1,29.64,WNW,297,0.0,0.0,81,0.00,,---,0.00,0.00,VWS V14.01,2013-03-26 07:35:00,
2013-03-26 03:40:00,33.2,28.3,29.64,WNW,297,0.0,0.0,82,0.00,,---,0.00,0.00,VWS V14.01,2013-03-26 07:40:00,
2013-03-26 03:45:00,33.2,28.0,29.64,WNW,297,0.0,0.0,81,0.00,,---,0.00,0.00,VWS V14.01,2013-03-26 07:45:00,
2013-03-26 03:50:00,33.1,28.2,29.64,WNW,297,0.0,0.0,82,0.00,,---,0.00,0.00,VWS V14.01,2013-03-26 07:50:00,
2013-03-26 03:55:00,33.0,28.1,29.64,WNW,297,0.0,0.0,82,0.00,,---,0.00,0.00,VWS V14.01,2013-03-26 07:55:00,
2013-03-26 04:00:00,32.9,28.3,29.65,WNW,297,0.0,0.0,83,0.00,,---,0.00,0.00,VWS V14.01,2013-03-26 08:00:00,
2013-03-26 04:05:00,32.8,28.2,29.65,WNW,297,0.0,0.0,83,0.00,,---,0.00,0.00,VWS V14.01,2013-03-26 08:05:00,
2013-03-26 04:10:00,32.7,28.1,29.65,WNW,297,0.0,0.0,83,0.00,,---,0.00,0.00,VWS V14.01,2013-03-26 08:10:00,
2013-03-26 04:15:00,32.6,28.0,29.65,WNW,297,0.0,0.0,83,0.00,,---,0.00,0.00,VWS V14.01,2013-03-26 08:15:00,
2013-03-26 04:20:00,32.6,28.0,29.65,WNW,297,0.0,0.0,83,0.00,,---,0.00,0.00,VWS V14.01,2013-03-26 08:20:00,
2013-03-26 04:25:00,32.5,28.2,29.65,WNW,297,0.0,0.0,84,0.00,,---,0.00,0.00,VWS V14.01,2013-03-26 08:25:00,
2013-03-26 04:30:00,32.5,28.2,29.65,WNW,297,0.0,0.0,84,0.00,,---,0.00,0.00,VWS V14.01,2013-03-26 08:30:00,
2013-03-26 04:35:00,32.5,28.2,29.65,WNW,297,0.0,0.0,84,0.00,,---,0.00,0.00,VWS V14.01,2013-03-26 08:35:00,
2013-03-26 04:40:00,32.5,28.2,29.65,WNW,297,0.0,0.0,84,0.00,,---,0.00,0.00,VWS V14.01,2013-03-26 08:40:00,
2013-03-26 04:45:00,32.6,28.3,29.65,WNW,297,0.0,0.0,84,0.00,,---,0.00,0.00,VWS V14.01,2013-03-26 08:45:00,
2013-03-26 04:50:00,32.7,28.4,29.65,WNW,297,0.0,0.0,84,0.00,,---,0.00,0.00,VWS V14.01,2013-03-26 08:50:00,
2013-03-26 04:55:00,32.8,28.5,29.66,WNW,297,0.0,0.0,84,0.00,,---,0.00,0.00,VWS V14.01,2013-03-26 08:55:00,
2013-03-26 05:00:00,32.8,28.2,29.66,WNW,297,0.0,0.0,83,0.00,,---,0.00,0.00,VWS V14.01,2013-03-26 09:00:00,
2013-03-26 05:05:00,32.8,28.5,29.66,WNW,297,0.0,0.0,84,0.00,,---,0.00,0.00,VWS V14.01,2013-03-26 09:05:00,
2013-03-26 05:10:00,32.7,28.4,29.66,WNW,297,0.0,0.0,84,0.00,,---,0.00,0.00,VWS V14.01,2013-03-26 09:10:00,
2013-03-26 05:15:00,32.7,28.4,29.66,WNW,297,0.0,0.0,84,0.00,,---,0.00,0.00,VWS V14.01,2013-03-26 09:15:00,
2013-03-26 05:20:00,32.6,28.3,29.66,WNW,297,0.0,0.0,84,0.00,,---,0.00,0.00,VWS V14.01,2013-03-26 09:20:00,
2013-03-26 05:25:00,32.5,28.2,29.66,WNW,297,0.0,0.0,84,0.00,,---,0.00,0.00,VWS V14.01,2013-03-26 09:25:00,
2013-03-26 05:30:00,32.5,28.5,29.67,WNW,297,0.0,0.0,85,0.00,,---,0.00,0.00,VWS V14.01,2013-03-26 09:30:00,
2013-03-26 05:35:00,32.4,28.4,29.67,WNW,297,0.0,0.0,85,0.00,,---,0.00,0.00,VWS V14.01,2013-03-26 09:35:00,
2013-03-26 05:40:00,32.3,28.3,29.67,WNW,297,0.0,0.0,85,0.00,,---,0.00,0.00,VWS V14.01,2013-03-26 09:40:00,
2013-03-26 05:45:00,32.2,28.5,29.67,WNW,297,0.0,0.0,86,0.00,,---,0.00,0.00,VWS V14.01,2013-03-26 09:45:00,
2013-03-26 05:50:00,32.2,28.5,29.67,WNW,297,0.0,0.0,86,0.00,,---,0.00,0.00,VWS V14.01,2013-03-26 09:50:00,
2013-03-26 05:55:00,32.2,28.5,29.67,WNW,297,0.0,0.0,86,0.00,,---,0.00,0.00,VWS V14.01,2013-03-26 09:55:00,
2013-03-26 06:00:00,32.2,28.5,29.67,WNW,297,0.0,0.0,86,0.00,,---,0.00,0.00,VWS V14.01,2013-03-26 10:00:00,
2013-03-26 06:05:00,32.4,28.7,29.68,WNW,297,0.0,0.0,86,0.00,,---,0.00,0.00,VWS V14.01,2013-03-26 10:05:00,
2013-03-26 06:10:00,32.5,28.8,29.68,WNW,297,0.0,0.0,86,0.00,,---,0.00,0.00,VWS V14.01,2013-03-26 10:10:00,
2013-03-26 06:15:00,32.6,28.6,29.68,WNW,297,0.0,0.0,85,0.00,,---,0.00,0.00,VWS V14.01,2013-03-26 10:15:00,
2013-03-26 06:20:00,32.7,29.0,29.68,WNW,297,0.0,0.0,86,0.00,,---,0.00,0.00,VWS V14.01,2013-03-26 10:20:00,
2013-03-26 06:25:00,32.7,28.7,29.68,WNW,297,0.0,0.0,85,0.00,,---,0.00,0.00,VWS V14.01,2013-03-26 10:25:00,
2013-03-26 06:30:00,32.8,28.8,29.68,WNW,297,0.0,0.0,85,0.00,,---,0.00,0.00,VWS V14.01,2013-03-26 10:30:00,
2013-03-26 06:35:00,32.8,28.8,29.69,WNW,297,0.0,0.0,85,0.00,,---,0.00,0.00,VWS V14.01,2013-03-26 10:35:00,
2013-03-26 06:40:00,32.8,28.8,29.69,WNW,297,0.0,0.0,85,0.00,,---,0.00,0.00,VWS V14.01,2013-03-26 10:40:00,
2013-03-26 06:45:00,32.8,28.8,29.68,WNW,297,0.0,0.0,85,0.00,,---,0.00,0.00,VWS V14.01,2013-03-26 10:45:00,
2013-03-26 06:50:00,32.9,28.9,29.69,WNW,297,0.0,0.0,85,0.00,,---,0.00,0.00,VWS V14.01,2013-03-26 10:50:00,
2013-03-26 06:55:00,32.9,28.9,29.69,WNW,297,0.0,0.0,85,0.00,,---,0.00,0.00,VWS V14.01,2013-03-26 10:55:00,
2013-03-26 07:00:00,32.9,28.9,29.69,WNW,297,0.0,0.0,85,0.00,,---,0.00,5.00,VWS V14.01,2013-03-26 11:00:00,
2013-03-26 07:05:00,33.0,29.0,29.69,WNW,297,0.0,0.0,85,0.00,,---,0.00,7.00,VWS V14.01,2013-03-26 11:05:00,
2013-03-26 07:10:00,33.0,29.0,29.69,WNW,297,0.0,0.0,85,0.00,,---,0.00,12.00,VWS V14.01,2013-03-26 11:10:00,
2013-03-26 07:15:00,33.0,29.0,29.70,WNW,297,0.0,0.0,85,0.00,,---,0.00,16.00,VWS V14.01,2013-03-26 11:15:00,
2013-03-26 07:20:00,33.1,29.1,29.70,WNW,297,0.0,0.0,85,0.00,,---,0.00,18.00,VWS V14.01,2013-03-26 11:20:00,
2013-03-26 07:25:00,33.2,29.2,29.71,WNW,297,0.0,0.0,85,0.00,,---,0.00,19.00,VWS V14.01,2013-03-26 11:25:00,
2013-03-26 07:30:00,33.1,29.1,29.71,WNW,297,0.0,0.0,85,0.00,,---,0.00,25.00,VWS V14.01,2013-03-26 11:30:00,
2013-03-26 07:35:00,33.1,29.1,29.71,WNW,297,0.0,0.0,85,0.00,,---,0.00,25.00,VWS V14.01,2013-03-26 11:35:00,
2013-03-26 07:40:00,33.1,29.1,29.71,WNW,297,0.0,0.0,85,0.00,,---,0.00,25.00,VWS V14.01,2013-03-26 11:40:00,
2013-03-26 07:45:00,33.2,29.2,29.72,WNW,297,0.0,0.0,85,0.00,,---,0.00,26.00,VWS V14.01,2013-03-26 11:45:00,
2013-03-26 07:50:00,33.3,29.3,29.72,WNW,297,0.0,0.0,85,0.00,,---,0.00,23.00,VWS V14.01,2013-03-26 11:50:00,
2013-03-26 07:55:00,33.3,29.6,29.72,WNW,297,0.0,0.0,86,0.00,,---,0.00,30.00,VWS V14.01,2013-03-26 11:55:00,
2013-03-26 08:00:00,33.4,29.7,29.72,WNW,297,0.0,0.0,86,0.00,,---,0.00,33.00,VWS V14.01,2013-03-26 12:00:00,
2013-03-26 08:05:00,33.5,29.8,29.72,WNW,297,0.0,0.0,86,0.00,,---,0.00,35.00,VWS V14.01,2013-03-26 12:05:00,
2013-03-26 08:10:00,33.6,29.9,29.72,WNW,297,0.0,0.0,86,0.00,,---,0.00,39.00,VWS V14.01,2013-03-26 12:10:00,
2013-03-26 08:14:00,33.8,30.1,29.73,WNW,297,0.0,0.0,86,0.00,,---,0.00,40.00,VWS V14.01,2013-03-26 12:14:00,
2013-03-26 08:19:00,33.9,29.9,29.73,WNW,297,0.0,0.0,85,0.00,,---,0.00,42.00,VWS V14.01,2013-03-26 12:19:00,
2013-03-26 08:30:00,34.0,30.0,29.73,WNW,297,0.0,0.0,85,0.00,,---,0.00,42.00,VWS V14.01,2013-03-26 12:30:00,
2013-03-26 08:35:00,34.7,30.4,29.73,WNW,297,0.0,0.0,84,0.00,,---,0.00,51.00,VWS V14.01,2013-03-26 12:35:00,
2013-03-26 08:40:00,34.9,30.6,29.73,WNW,297,3.0,3.0,84,0.00,,---,0.00,62.00,VWS V14.01,2013-03-26 12:40:00,
2013-03-26 08:45:00,35.1,30.5,29.73,WNW,297,0.0,3.0,83,0.00,,---,0.00,70.00,VWS V14.01,2013-03-26 12:45:00,
2013-03-26 08:50:00,35.3,30.7,29.73,WNW,297,0.0,3.0,83,0.00,,---,0.00,76.00,VWS V14.01,2013-03-26 12:50:00,
2013-03-26 08:55:00,35.4,30.8,29.73,WNW,297,0.0,3.0,83,0.00,,---,0.00,76.00,VWS V14.01,2013-03-26 12:55:00,
2013-03-26 09:00:00,35.6,30.7,29.73,WNW,297,0.0,3.0,82,0.00,,---,0.00,107.00,VWS V14.01,2013-03-26 13:00:00,
2013-03-26 09:05:00,35.9,31.2,29.74,WNW,297,0.0,0.0,83,0.00,,---,0.00,116.00,VWS V14.01,2013-03-26 13:05:00,
2013-03-26 09:10:00,36.1,31.5,29.74,WNW,297,0.0,0.0,83,0.00,,---,0.00,121.00,VWS V14.01,2013-03-26 13:10:00,
2013-03-26 09:14:00,36.3,31.0,29.74,WNW,297,0.0,0.0,81,0.00,,---,0.00,120.00,VWS V14.01,2013-03-26 13:14:00,
2013-03-26 09:19:00,36.5,31.2,29.74,WNW,297,1.0,3.0,81,0.00,,---,0.00,74.00,VWS V14.01,2013-03-26 13:19:00,
2013-03-26 09:24:00,36.6,31.0,29.74,WNW,297,0.0,3.0,80,0.00,,---,0.00,113.00,VWS V14.01,2013-03-26 13:24:00,
2013-03-26 09:29:00,36.7,30.5,29.74,WNW,297,0.0,3.0,78,0.00,,---,0.00,116.00,VWS V14.01,2013-03-26 13:29:00,
2013-03-26 09:30:00,36.6,30.4,29.75,WNW,297,0.0,3.0,78,0.00,,---,0.00,104.00,VWS V14.01,2013-03-26 13:30:00,
2013-03-26 09:34:00,36.6,30.7,29.75,WNW,297,0.0,0.0,79,0.00,,---,0.00,111.00,VWS V14.01,2013-03-26 13:34:00,
2013-03-26 09:39:00,36.6,30.7,29.75,ENE,70,0.0,5.0,79,0.00,,---,0.00,91.00,VWS V14.01,2013-03-26 13:39:00,
2013-03-26 09:44:00,36.6,30.4,29.75,ENE,70,0.0,5.0,78,0.00,,---,0.00,116.00,VWS V14.01,2013-03-26 13:44:00,
2013-03-26 09:49:00,36.7,31.7,29.75,ENE,70,0.0,5.0,82,0.00,,---,0.00,135.00,VWS V14.01,2013-03-26 13:49:00,
2013-03-26 09:54:00,36.9,30.4,29.75,ENE,70,0.0,5.0,77,0.00,,---,0.00,200.00,VWS V14.01,2013-03-26 13:54:00,
2013-03-26 09:59:00,37.2,30.0,29.75,East,95,0.0,5.0,75,0.00,,---,0.00,248.00,VWS V14.01,2013-03-26 13:59:00,
2013-03-26 10:00:00,37.4,30.2,29.75,ENE,75,0.0,5.0,75,0.00,,---,0.00,274.00,VWS V14.01,2013-03-26 14:00:00,
2013-03-26 10:04:00,37.5,30.3,29.75,WSW,241,0.0,2.0,75,0.00,,---,0.00,244.00,VWS V14.01,2013-03-26 14:04:00,
2013-03-26 10:09:00,38.0,30.1,29.75,WNW,292,1.0,2.0,73,0.00,,---,0.00,327.00,VWS V14.01,2013-03-26 14:09:00,
2013-03-26 10:14:00,38.6,30.0,29.75,NW,313,0.0,7.0,71,0.00,,---,0.00,403.00,VWS V14.01,2013-03-26 14:14:00,
2013-03-26 10:19:00,39.0,30.1,29.75,NNE,31,0.0,7.0,70,0.00,,---,0.00,348.00,VWS V14.01,2013-03-26 14:19:00,
2013-03-26 10:24:00,39.3,30.4,29.75,ENE,66,0.0,7.0,70,0.00,,---,0.00,345.00,VWS V14.01,2013-03-26 14:24:00,
2013-03-26 10:29:00,39.4,29.7,29.75,SW,217,2.0,7.0,68,0.00,,---,0.00,320.00,VWS V14.01,2013-03-26 14:29:00,
2013-03-26 10:30:00,39.6,30.3,29.75,NE,36,0.0,7.0,69,0.00,,---,0.00,281.00,VWS V14.01,2013-03-26 14:30:00,
2013-03-26 10:34:00,39.6,29.6,29.75,NNE,23,0.0,7.0,67,0.00,,---,0.00,294.00,VWS V14.01,2013-03-26 14:34:00,
2013-03-26 10:39:00,39.3,28.9,29.75,South,185,0.0,7.0,66,0.00,,---,0.00,357.00,VWS V14.01,2013-03-26 14:39:00,
2013-03-26 10:44:00,40.0,29.9,29.75,NE,43,3.0,7.0,67,0.00,,---,0.00,628.00,VWS V14.01,2013-03-26 14:44:00,
2013-03-26 10:49:00,40.4,29.6,29.76,West,277,0.0,7.0,65,0.00,,---,0.00,330.00,VWS V14.01,2013-03-26 14:49:00,
2013-03-26 10:54:00,40.2,29.4,29.76,ENE,65,0.0,7.0,65,0.00,,---,0.00,265.00,VWS V14.01,2013-03-26 14:54:00,
2013-03-26 10:59:00,40.0,29.6,29.76,NE,50,0.0,7.0,66,0.00,,---,0.00,343.00,VWS V14.01,2013-03-26 14:59:00,
2013-03-26 11:00:00,39.9,29.5,29.76,WSW,248,3.0,7.0,66,0.00,,---,0.00,345.00,VWS V14.01,2013-03-26 15:00:00,
2013-03-26 11:04:00,39.9,29.5,29.76,NW,315,0.0,8.0,66,0.00,,---,0.00,345.00,VWS V14.01,2013-03-26 15:04:00,
2013-03-26 11:09:00,40.0,29.2,29.76,SW,230,0.0,8.0,65,0.00,,---,0.00,352.00,VWS V14.01,2013-03-26 15:09:00,
2013-03-26 11:14:00,40.3,29.9,29.76,ENE,69,3.0,8.0,66,0.00,,---,0.00,394.00,VWS V14.01,2013-03-26 15:14:00,
2013-03-26 11:19:00,40.4,29.6,29.77,ENE,66,0.0,8.0,65,0.00,,---,0.00,322.00,VWS V14.01,2013-03-26 15:19:00,
2013-03-26 11:24:00,40.0,29.2,29.77,NNW,329,2.0,8.0,65,0.00,,---,0.00,357.00,VWS V14.01,2013-03-26 15:24:00,
2013-03-26 11:29:00,40.1,29.7,29.77,North,5,2.0,8.0,66,0.00,,---,0.00,436.00,VWS V14.01,2013-03-26 15:29:00,
2013-03-26 11:30:00,40.3,29.5,29.77,NE,43,0.0,8.0,65,0.00,,---,0.00,323.00,VWS V14.01,2013-03-26 15:30:00,
2013-03-26 11:34:00,40.4,29.6,29.77,NE,54,2.0,3.0,65,0.00,,---,0.00,362.00,VWS V14.01,2013-03-26 15:34:00,
2013-03-26 11:39:00,41.0,30.1,29.77,ENE,59,2.0,3.0,65,0.00,,---,0.00,345.00,VWS V14.01,2013-03-26 15:39:00,
2013-03-26 11:44:00,41.0,29.4,29.77,WNW,301,1.0,4.0,63,0.00,,---,0.00,309.00,VWS V14.01,2013-03-26 15:44:00,
2013-03-26 11:49:00,40.7,29.5,29.77,NW,313,0.0,5.0,64,0.00,,---,0.00,381.00,VWS V14.01,2013-03-26 15:49:00,
2013-03-26 11:54:00,41.1,31.4,29.77,NNW,347,1.0,5.0,68,0.00,,---,0.00,346.00,VWS V14.01,2013-03-26 15:54:00,
2013-03-26 11:59:00,41.3,29.3,29.77,WSW,253,0.0,5.0,62,0.00,,---,0.00,357.00,VWS V14.01,2013-03-26 15:59:00,
2013-03-26 12:00:00,41.5,29.5,29.77,NNE,13,0.0,8.0,62,0.00,,---,0.00,396.00,VWS V14.01,2013-03-26 16:00:00,
2013-03-26 12:04:00,41.5,29.1,29.77,East,92,0.0,3.0,61,0.00,,---,0.00,343.00,VWS V14.01,2013-03-26 16:04:00,
2013-03-26 12:09:00,42.1,30.0,29.77,SSE,152,0.0,5.0,62,0.00,,---,0.00,380.00,VWS V14.01,2013-03-26 16:09:00,
2013-03-26 12:14:00,42.6,30.5,29.77,West,267,0.0,5.0,62,0.00,,---,0.00,1164.00,VWS V14.01,2013-03-26 16:14:00,
2013-03-26 12:19:00,43.8,30.8,29.77,NNE,15,0.0,5.0,60,0.00,,---,0.00,1106.00,VWS V14.01,2013-03-26 16:19:00,
2013-03-26 12:24:00,44.2,30.4,29.77,NNW,346,3.0,7.0,58,0.00,,---,0.00,1106.00,VWS V14.01,2013-03-26 16:24:00,
2013-03-26 12:29:00,45.0,30.7,29.76,NW,315,0.0,11.0,57,0.00,,---,0.00,1007.00,VWS V14.01,2013-03-26 16:29:00,
2013-03-26 12:30:00,44.8,29.6,29.77,South,188,2.0,11.0,55,0.00,,---,0.00,401.00,VWS V14.01,2013-03-26 16:30:00,
2013-03-26 12:34:00,44.5,28.9,29.76,ENE,60,4.0,4.0,54,0.00,,---,0.00,369.00,VWS V14.01,2013-03-26 16:34:00,
2013-03-26 12:39:00,43.8,29.6,29.77,North,360,1.0,4.0,57,0.00,,---,0.00,304.00,VWS V14.01,2013-03-26 16:39:00,
2013-03-26 12:44:00,42.7,27.7,29.77,NNE,22,0.0,5.0,55,0.00,,---,0.00,267.00,VWS V14.01,2013-03-26 16:44:00,
2013-03-26 12:49:00,42.6,27.6,29.77,NNE,21,3.0,9.0,55,0.00,,---,0.00,367.00,VWS V14.01,2013-03-26 16:49:00,
2013-03-26 12:54:00,43.0,28.0,29.77,West,263,1.0,9.0,55,0.00,,---,0.00,381.00,VWS V14.01,2013-03-26 16:54:00,
2013-03-26 12:59:00,43.6,28.1,29.76,SW,216,5.0,9.0,54,0.00,,---,0.00,404.00,VWS V14.01,2013-03-26 16:59:00,
2013-03-26 13:00:00,43.6,27.1,29.76,East,92,1.0,10.0,52,0.00,,---,0.00,378.00,VWS V14.01,2013-03-26 17:00:00,
2013-03-26 13:04:00,43.6,27.6,29.76,WSW,239,3.0,3.0,53,0.00,,---,0.00,1132.00,VWS V14.01,2013-03-26 17:04:00,
2013-03-26 13:09:00,44.6,28.5,29.76,South,172,0.0,6.0,53,0.00,,---,0.00,1179.00,VWS V14.01,2013-03-26 17:09:00,
2013-03-26 13:14:00,45.6,29.5,29.76,NW,325,5.0,9.0,53,0.00,,---,0.00,970.00,VWS V14.01,2013-03-26 17:14:00,
2013-03-26 13:19:00,46.2,30.0,29.76,SW,232,7.0,9.0,53,0.00,,---,0.00,1083.00,VWS V14.01,2013-03-26 17:19:00,
2013-03-26 13:24:00,46.3,28.7,29.76,West,277,3.0,9.0,50,0.00,,---,0.00,353.00,VWS V14.01,2013-03-26 17:24:00,
2013-03-26 13:29:00,45.7,28.6,29.76,West,273,0.0,9.0,51,0.00,,---,0.00,255.00,VWS V14.01,2013-03-26 17:29:00,
2013-03-26 13:30:00,45.0,28.0,29.76,East,101,1.0,9.0,51,0.00,,---,0.00,285.00,VWS V14.01,2013-03-26 17:30:00,
2013-03-26 13:34:00,44.9,28.8,29.76,NNE,23,1.0,3.0,53,0.00,,---,0.00,285.00,VWS V14.01,2013-03-26 17:34:00,
2013-03-26 13:39:00,43.8,27.3,29.76,NNW,338,2.0,10.0,52,0.00,,---,0.00,232.00,VWS V14.01,2013-03-26 17:39:00,
2013-03-26 13:44:00,43.9,28.8,29.76,NNW,338,0.0,10.0,55,0.00,,---,0.00,998.00,VWS V14.01,2013-03-26 17:44:00,
2013-03-26 13:49:00,43.7,27.2,29.76,NE,36,2.0,10.0,52,0.00,,---,0.00,264.00,VWS V14.01,2013-03-26 17:49:00,
2013-03-26 13:54:00,44.2,28.6,29.76,WNW,285,3.0,10.0,54,0.00,,---,0.00,406.00,VWS V14.01,2013-03-26 17:54:00,
2013-03-26 13:59:00,44.9,27.9,29.76,WNW,284,2.0,10.0,51,0.00,,---,0.00,346.00,VWS V14.01,2013-03-26 17:59:00,
2013-03-26 14:00:00,45.2,29.1,29.76,WNW,285,4.0,10.0,53,0.00,,---,0.00,1060.00,VWS V14.01,2013-03-26 18:00:00,
2013-03-26 14:04:00,45.4,28.8,29.76,NW,317,1.0,4.0,52,0.00,,---,0.00,297.00,VWS V14.01,2013-03-26 18:04:00,
2013-03-26 14:09:00,45.2,28.2,29.76,NW,304,1.0,4.0,51,0.00,,---,0.00,334.00,VWS V14.01,2013-03-26 18:09:00,
2013-03-26 14:14:00,44.7,28.2,29.76,NNE,28,0.0,4.0,52,0.00,,---,0.00,299.00,VWS V14.01,2013-03-26 18:14:00,
2013-03-26 14:19:00,44.5,28.5,29.76,WSW,238,6.0,6.0,53,0.00,,---,0.00,285.00,VWS V14.01,2013-03-26 18:19:00,
2013-03-26 14:24:00,44.7,27.7,29.76,ENE,72,0.0,7.0,51,0.00,,---,0.00,320.00,VWS V14.01,2013-03-26 18:24:00,
2013-03-26 14:29:00,44.6,28.1,29.76,West,275,3.0,8.0,52,0.00,,---,0.00,244.00,VWS V14.01,2013-03-26 18:29:00,
2013-03-26 14:30:00,44.3,27.3,29.76,ENE,65,1.0,8.0,51,0.00,,---,0.00,246.00,VWS V14.01,2013-03-26 18:30:00,
2013-03-26 14:34:00,44.2,28.2,29.76,ENE,65,0.0,4.0,53,0.00,,---,0.00,274.00,VWS V14.01,2013-03-26 18:34:00,
2013-03-26 14:39:00,44.1,27.6,29.76,NNE,15,0.0,4.0,52,0.00,,---,0.00,267.00,VWS V14.01,2013-03-26 18:39:00,
2013-03-26 14:44:00,44.5,28.0,29.76,West,270,4.0,7.0,52,0.00,,---,0.00,944.00,VWS V14.01,2013-03-26 18:44:00,
2013-03-26 14:49:00,44.7,28.2,29.76,ENE,64,0.0,7.0,52,0.00,,---,0.00,265.00,VWS V14.01,2013-03-26 18:49:00,
2013-03-26 14:54:00,44.3,26.9,29.76,NE,40,0.0,7.0,50,0.00,,---,0.00,255.00,VWS V14.01,2013-03-26 18:54:00,
2013-03-26 14:59:00,44.5,27.5,29.76,WNW,287,0.0,7.0,51,0.00,,---,0.00,323.00,VWS V14.01,2013-03-26 18:59:00,
2013-03-26 15:00:00,44.5,27.5,29.76,NE,48,3.0,8.0,51,0.00,,---,0.00,652.00,VWS V14.01,2013-03-26 19:00:00,
2013-03-26 15:04:00,44.5,27.0,29.76,ENE,75,0.0,4.0,50,0.00,,---,0.00,271.00,VWS V14.01,2013-03-26 19:04:00,
2013-03-26 15:09:00,44.5,27.5,29.77,NW,307,0.0,4.0,51,0.00,,---,0.00,325.00,VWS V14.01,2013-03-26 19:09:00,
2013-03-26 15:14:00,44.6,27.1,29.76,NNW,346,0.0,5.0,50,0.00,,---,0.00,290.00,VWS V14.01,2013-03-26 19:14:00,
2013-03-26 15:19:00,44.1,26.7,29.76,ENE,63,0.0,5.0,50,0.00,,---,0.00,188.00,VWS V14.01,2013-03-26 19:19:00,
2013-03-26 15:24:00,43.7,26.8,29.76,NE,56,0.0,5.0,51,0.00,,---,0.00,197.00,VWS V14.01,2013-03-26 19:24:00,
2013-03-26 15:29:00,43.4,27.0,29.77,WSW,255,1.0,5.0,52,0.00,,---,0.00,211.00,VWS V14.01,2013-03-26 19:29:00,
2013-03-26 15:30:00,43.7,27.7,29.77,NE,52,3.0,5.0,53,0.00,,---,0.00,673.00,VWS V14.01,2013-03-26 19:30:00,
2013-03-26 15:34:00,43.9,27.0,29.77,NE,44,0.0,5.0,51,0.00,,---,0.00,599.00,VWS V14.01,2013-03-26 19:34:00,
2013-03-26 15:39:00,44.6,27.1,29.76,NW,310,2.0,5.0,50,0.00,,---,0.00,657.00,VWS V14.01,2013-03-26 19:39:00,
2013-03-26 15:44:00,45.5,28.4,29.76,West,270,0.0,6.0,51,0.00,,---,0.00,768.00,VWS V14.01,2013-03-26 19:44:00,
2013-03-26 15:49:00,45.9,26.8,29.76,ENE,66,3.0,7.0,47,0.00,,---,0.00,680.00,VWS V14.01,2013-03-26 19:49:00,
2013-03-26 15:54:00,45.2,27.2,29.77,North,5,2.0,7.0,49,0.00,,---,0.00,118.00,VWS V14.01,2013-03-26 19:54:00,
2013-03-26 15:59:00,44.0,26.1,29.77,NW,324,0.0,7.0,49,0.00,,---,0.00,598.00,VWS V14.01,2013-03-26 19:59:00,
2013-03-26 16:00:00,44.2,26.8,29.77,NNW,333,4.0,7.0,50,0.00,,---,0.00,582.00,VWS V14.01,2013-03-26 20:00:00,
2013-03-26 16:04:00,44.4,26.5,29.76,NNW,344,1.0,4.0,49,0.00,,---,0.00,582.00,VWS V14.01,2013-03-26 20:04:00,
2013-03-26 16:09:00,44.9,26.4,29.76,NNE,16,0.0,5.0,48,0.00,,---,0.00,575.00,VWS V14.01,2013-03-26 20:09:00,
2013-03-26 16:14:00,45.2,26.7,29.77,West,270,0.0,5.0,48,0.00,,---,0.00,127.00,VWS V14.01,2013-03-26 20:14:00,
2013-03-26 16:19:00,44.0,25.1,29.77,NNE,30,1.0,5.0,47,0.00,,---,0.00,93.00,VWS V14.01,2013-03-26 20:19:00,
2013-03-26 16:24:00,44.0,25.6,29.77,NNW,346,1.0,8.0,48,0.00,,---,0.00,555.00,VWS V14.01,2013-03-26 20:24:00,
2013-03-26 16:29:00,44.9,25.9,29.77,WNW,286,0.0,8.0,47,0.00,,---,0.00,564.00,VWS V14.01,2013-03-26 20:29:00,
2013-03-26 16:30:00,45.5,25.9,29.77,North,360,0.0,8.0,46,0.00,,---,0.00,538.00,VWS V14.01,2013-03-26 20:30:00,
2013-03-26 16:34:00,45.7,26.6,29.77,North,360,0.0,0.0,47,0.00,,---,0.00,522.00,VWS V14.01,2013-03-26 20:34:00,
2013-03-26 16:39:00,45.8,26.2,29.77,NNE,17,0.0,2.0,46,0.00,,---,0.00,559.00,VWS V14.01,2013-03-26 20:39:00,
2013-03-26 16:44:00,45.8,25.7,29.77,NE,52,4.0,8.0,45,0.00,,---,0.00,494.00,VWS V14.01,2013-03-26 20:44:00,
2013-03-26 16:49:00,45.2,25.1,29.77,NW,304,0.0,10.0,45,0.00,,---,0.00,156.00,VWS V14.01,2013-03-26 20:49:00,
2013-03-26 16:54:00,44.3,25.4,29.77,North,360,0.0,10.0,47,0.00,,---,0.00,213.00,VWS V14.01,2013-03-26 20:54:00,
2013-03-26 16:59:00,44.0,25.1,29.77,North,355,1.0,10.0,47,0.00,,---,0.00,165.00,VWS V14.01,2013-03-26 20:59:00,
2013-03-26 17:00:00,43.9,25.0,29.78,NNE,16,0.0,10.0,47,0.00,,---,0.00,144.00,VWS V14.01,2013-03-26 21:00:00,
2013-03-26 17:04:00,43.8,25.4,29.78,WNW,291,0.0,0.0,48,0.00,,---,0.00,128.00,VWS V14.01,2013-03-26 21:04:00,
2013-03-26 17:09:00,43.8,25.4,29.78,NE,48,0.0,3.0,48,0.00,,---,0.00,269.00,VWS V14.01,2013-03-26 21:09:00,
2013-03-26 17:14:00,43.7,24.8,29.78,NE,48,0.0,4.0,47,0.00,,---,0.00,118.00,VWS V14.01,2013-03-26 21:14:00,
2013-03-26 17:19:00,43.8,24.4,29.78,ENE,64,0.0,4.0,46,0.00,,---,0.00,378.00,VWS V14.01,2013-03-26 21:19:00,
2013-03-26 17:24:00,44.1,24.1,29.78,ENE,67,0.0,4.0,45,0.00,,---,0.00,329.00,VWS V14.01,2013-03-26 21:24:00,
2013-03-26 17:29:00,43.9,24.5,29.78,North,360,0.0,8.0,46,0.00,,---,0.00,316.00,VWS V14.01,2013-03-26 21:29:00,
2013-03-26 17:30:00,43.6,24.7,29.78,NE,49,0.0,8.0,47,0.00,,---,0.00,295.00,VWS V14.01,2013-03-26 21:30:00,
2013-03-26 17:34:00,43.6,24.2,29.78,NE,49,0.0,3.0,46,0.00,,---,0.00,220.00,VWS V14.01,2013-03-26 21:34:00,
2013-03-26 17:39:00,43.5,24.6,29.78,NE,51,0.0,3.0,47,0.00,,---,0.00,40.00,VWS V14.01,2013-03-26 21:39:00,
2013-03-26 17:44:00,43.5,24.6,29.79,NE,51,0.0,3.0,47,0.00,,---,0.00,49.00,VWS V14.01,2013-03-26 21:44:00,
2013-03-26 17:49:00,43.6,24.2,29.79,SW,230,0.0,3.0,46,0.00,,---,0.00,60.00,VWS V14.01,2013-03-26 21:49:00,
2013-03-26 17:54:00,43.8,23.3,29.79,NNE,22,0.0,4.0,44,0.00,,---,0.00,60.00,VWS V14.01,2013-03-26 21:54:00,
2013-03-26 17:59:00,43.7,24.3,29.79,NNE,22,0.0,4.0,46,0.00,,---,0.00,40.00,VWS V14.01,2013-03-26 21:59:00,
2013-03-26 18:00:00,43.6,25.2,29.79,NNE,22,0.0,4.0,48,0.00,,---,0.00,33.00,VWS V14.01,2013-03-26 22:00:00,
2013-03-26 18:04:00,43.5,24.6,29.79,NNE,22,0.0,0.0,47,0.00,,---,0.00,39.00,VWS V14.01,2013-03-26 22:04:00,
2013-03-26 18:09:00,43.3,24.4,29.79,West,277,0.0,4.0,47,0.00,,---,0.00,46.00,VWS V14.01,2013-03-26 22:09:00,
2013-03-26 18:14:00,43.1,24.8,29.79,West,264,2.0,4.0,48,0.00,,---,0.00,42.00,VWS V14.01,2013-03-26 22:14:00,
2013-03-26 18:19:00,42.9,24.6,29.79,West,279,0.0,6.0,48,0.00,,---,0.00,39.00,VWS V14.01,2013-03-26 22:19:00,
2013-03-26 18:24:00,42.5,25.2,29.80,West,279,0.0,6.0,50,0.00,,---,0.00,33.00,VWS V14.01,2013-03-26 22:24:00,
2013-03-26 18:29:00,42.2,23.9,29.80,NNW,340,0.0,6.0,48,0.00,,---,0.00,30.00,VWS V14.01,2013-03-26 22:29:00,
2013-03-26 18:30:00,42.2,24.4,29.80,WSW,249,0.0,6.0,49,0.00,,---,0.00,25.00,VWS V14.01,2013-03-26 22:30:00,
2013-03-26 18:34:00,42.2,24.9,29.80,WSW,249,0.0,0.0,50,0.00,,---,0.00,23.00,VWS V14.01,2013-03-26 22:34:00,
2013-03-26 18:39:00,42.0,24.7,29.80,WSW,249,0.0,0.0,50,0.00,,---,0.00,25.00,VWS V14.01,2013-03-26 22:39:00,
2013-03-26 18:44:00,41.8,25.0,29.80,WSW,249,0.0,1.0,51,0.00,,---,0.00,26.00,VWS V14.01,2013-03-26 22:44:00,
2013-03-26 18:49:00,41.6,25.3,29.80,WSW,249,0.0,1.0,52,0.00,,---,0.00,21.00,VWS V14.01,2013-03-26 22:49:00,
2013-03-26 18:54:00,41.3,24.1,29.81,WSW,249,0.0,1.0,50,0.00,,---,0.00,16.00,VWS V14.01,2013-03-26 22:54:00,
2013-03-26 18:59:00,41.1,22.9,29.81,WSW,249,0.0,1.0,48,0.00,,---,0.00,9.00,VWS V14.01,2013-03-26 22:59:00,
2013-03-26 19:00:00,41.0,24.3,29.81,WSW,249,0.0,1.0,51,0.00,,---,0.00,7.00,VWS V14.01,2013-03-26 23:00:00,
2013-03-26 19:04:00,40.9,24.6,29.81,WSW,249,0.0,0.0,52,0.00,,---,0.00,5.00,VWS V14.01,2013-03-26 23:04:00,
2013-03-26 19:09:00,40.6,25.3,29.81,WSW,249,0.0,0.0,54,0.00,,---,0.00,0.00,VWS V14.01,2013-03-26 23:09:00,
2013-03-26 19:14:00,40.0,25.1,29.81,WSW,249,0.0,0.0,55,0.00,,---,0.00,0.00,VWS V14.01,2013-03-26 23:14:00,
2013-03-26 19:19:00,39.5,25.5,29.81,WSW,249,0.0,0.0,57,0.00,,---,0.00,0.00,VWS V14.01,2013-03-26 23:19:00,
2013-03-26 19:24:00,38.9,25.0,29.81,WSW,249,0.0,0.0,57,0.00,,---,0.00,0.00,VWS V14.01,2013-03-26 23:24:00,
2013-03-26 19:29:00,38.4,25.3,29.81,WSW,249,0.0,0.0,59,0.00,,---,0.00,0.00,VWS V14.01,2013-03-26 23:29:00,
2013-03-26 19:30:00,37.9,25.3,29.82,WSW,249,0.0,0.0,60,0.00,,---,0.00,0.00,VWS V14.01,2013-03-26 23:30:00,
2013-03-26 19:34:00,37.8,25.6,29.82,WSW,249,0.0,0.0,61,0.00,,---,0.00,0.00,VWS V14.01,2013-03-26 23:34:00,
2013-03-26 19:39:00,37.1,24.9,29.82,WSW,249,0.0,2.0,61,0.00,,---,0.00,0.00,VWS V14.01,2013-03-26 23:39:00,
2013-03-26 19:44:00,36.6,24.8,29.82,WSW,249,0.0,2.0,62,0.00,,---,0.00,0.00,VWS V14.01,2013-03-26 23:44:00,
2013-03-26 19:49:00,36.2,25.2,29.82,WSW,249,0.0,2.0,64,0.00,,---,0.00,0.00,VWS V14.01,2013-03-26 23:49:00,
2013-03-26 19:54:00,35.7,25.1,29.82,WSW,249,0.0,2.0,65,0.00,,---,0.00,0.00,VWS V14.01,2013-03-26 23:54:00,
2013-03-26 19:59:00,35.2,25.0,29.83,WSW,249,0.0,2.0,66,0.00,,---,0.00,0.00,VWS V14.01,2013-03-26 23:59:00,
2013-03-26 20:00:00,34.8,25.0,29.83,WSW,249,0.0,2.0,67,0.00,,---,0.00,0.00,VWS V14.01,2013-03-27 00:00:00,
2013-03-26 20:04:00,34.7,24.9,29.83,WSW,249,0.0,0.0,67,0.00,,---,0.00,0.00,VWS V14.01,2013-03-27 00:04:00,
2013-03-26 20:09:00,34.4,25.0,29.83,WSW,249,0.0,0.0,68,0.00,,---,0.00,0.00,VWS V14.01,2013-03-27 00:09:00,
2013-03-26 20:14:00,34.1,24.7,29.83,WSW,249,0.0,0.0,68,0.00,,---,0.00,0.00,VWS V14.01,2013-03-27 00:14:00,
2013-03-26 20:19:00,33.7,25.0,29.83,WSW,249,0.0,0.0,70,0.00,,---,0.00,0.00,VWS V14.01,2013-03-27 00:19:00,
2013-03-26 20:24:00,33.4,24.7,29.83,WSW,249,0.0,0.0,70,0.00,,---,0.00,0.00,VWS V14.01,2013-03-27 00:24:00,
2013-03-26 20:29:00,33.1,24.4,29.83,WSW,249,0.0,0.0,70,0.00,,---,0.00,0.00,VWS V14.01,2013-03-27 00:29:00,
2013-03-26 20:30:00,32.9,24.5,29.83,WSW,249,0.0,0.0,71,0.00,,---,0.00,0.00,VWS V14.01,2013-03-27 00:30:00,
2013-03-26 20:34:00,32.9,24.9,29.84,WSW,249,0.0,0.0,72,0.00,,---,0.00,0.00,VWS V14.01,2013-03-27 00:34:00,
2013-03-26 20:39:00,32.6,24.2,29.84,WSW,249,0.0,0.0,71,0.00,,---,0.00,0.00,VWS V14.01,2013-03-27 00:39:00,
2013-03-26 20:44:00,32.3,24.3,29.84,WSW,249,0.0,0.0,72,0.00,,---,0.00,0.00,VWS V14.01,2013-03-27 00:44:00,
2013-03-26 20:49:00,31.9,24.2,29.84,WSW,249,0.0,0.0,73,0.00,,---,0.00,0.00,VWS V14.01,2013-03-27 00:49:00,
2013-03-26 20:54:00,31.5,23.9,29.84,WSW,249,0.0,0.0,73,0.00,,---,0.00,0.00,VWS V14.01,2013-03-27 00:54:00,
2013-03-26 20:59:00,31.2,23.6,29.84,WSW,249,0.0,0.0,73,0.00,,---,0.00,0.00,VWS V14.01,2013-03-27 00:59:00,
2013-03-26 21:00:00,31.0,23.7,29.84,WSW,249,0.0,0.0,74,0.00,,---,0.00,0.00,VWS V14.01,2013-03-27 01:00:00,
2013-03-26 21:04:00,31.0,23.7,29.84,WSW,249,0.0,0.0,74,0.00,,---,0.00,0.00,VWS V14.01,2013-03-27 01:04:00,
2013-03-26 21:09:00,30.8,23.5,29.84,WSW,249,0.0,0.0,74,0.00,,---,0.00,0.00,VWS V14.01,2013-03-27 01:09:00,
2013-03-26 21:14:00,30.6,23.3,29.85,WSW,249,0.0,0.0,74,0.00,,---,0.00,0.00,VWS V14.01,2013-03-27 01:14:00,
2013-03-26 21:19:00,30.4,23.1,29.85,WSW,249,0.0,0.0,74,0.00,,---,0.00,0.00,VWS V14.01,2013-03-27 01:19:00,
2013-03-26 21:24:00,30.2,23.2,29.85,WSW,249,0.0,0.0,75,0.00,,---,0.00,0.00,VWS V14.01,2013-03-27 01:24:00,
2013-03-26 21:29:00,30.0,23.4,29.85,WSW,249,0.0,0.0,76,0.00,,---,0.00,0.00,VWS V14.01,2013-03-27 01:29:00,
2013-03-26 21:30:00,29.9,23.3,29.85,WSW,249,0.0,0.0,76,0.00,,---,0.00,0.00,VWS V14.01,2013-03-27 01:30:00,
2013-03-26 21:34:00,29.8,23.2,29.85,WSW,249,0.0,0.0,76,0.00,,---,0.00,0.00,VWS V14.01,2013-03-27 01:34:00,
2013-03-26 21:39:00,29.6,23.3,29.85,WSW,249,0.0,0.0,77,0.00,,---,0.00,0.00,VWS V14.01,2013-03-27 01:39:00,
2013-03-26 21:44:00,29.4,23.1,29.85,WSW,249,0.0,0.0,77,0.00,,---,0.00,0.00,VWS V14.01,2013-03-27 01:44:00,
2013-03-26 21:49:00,29.2,23.2,29.85,WSW,249,0.0,0.0,78,0.00,,---,0.00,0.00,VWS V14.01,2013-03-27 01:49:00,
2013-03-26 21:54:00,29.0,23.0,29.86,WSW,249,0.0,0.0,78,0.00,,---,0.00,0.00,VWS V14.01,2013-03-27 01:54:00,
2013-03-26 21:59:00,28.8,23.1,29.86,WSW,249,0.0,0.0,79,0.00,,---,0.00,0.00,VWS V14.01,2013-03-27 01:59:00,
2013-03-26 22:00:00,28.8,23.4,29.86,WSW,249,0.0,0.0,80,0.00,,---,0.00,0.00,VWS V14.01,2013-03-27 02:00:00,
2013-03-26 22:04:00,28.7,23.3,29.86,WSW,249,0.0,0.0,80,0.00,,---,0.00,0.00,VWS V14.01,2013-03-27 02:04:00,
2013-03-26 22:09:00,28.6,22.9,29.86,WSW,249,0.0,0.0,79,0.00,,---,0.00,0.00,VWS V14.01,2013-03-27 02:09:00,
2013-03-26 22:14:00,28.5,23.1,29.86,WSW,249,0.0,0.0,80,0.00,,---,0.00,0.00,VWS V14.01,2013-03-27 02:14:00,
2013-03-26 22:19:00,28.5,23.1,29.87,WSW,249,0.0,0.0,80,0.00,,---,0.00,0.00,VWS V14.01,2013-03-27 02:19:00,
2013-03-26 22:24:00,28.4,23.0,29.86,WSW,249,0.0,0.0,80,0.00,,---,0.00,0.00,VWS V14.01,2013-03-27 02:24:00,
2013-03-26 22:29:00,28.3,23.2,29.87,WSW,249,0.0,0.0,81,0.00,,---,0.00,0.00,VWS V14.01,2013-03-27 02:29:00,
2013-03-26 22:30:00,28.2,23.1,29.87,WSW,249,0.0,0.0,81,0.00,,---,0.00,0.00,VWS V14.01,2013-03-27 02:30:00,
2013-03-26 22:34:00,28.1,23.3,29.87,WSW,249,0.0,0.0,82,0.00,,---,0.00,0.00,VWS V14.01,2013-03-27 02:34:00,
2013-03-26 22:39:00,28.0,23.2,29.87,WSW,249,0.0,0.0,82,0.00,,---,0.00,0.00,VWS V14.01,2013-03-27 02:39:00,
2013-03-26 22:44:00,27.9,23.1,29.87,WSW,249,0.0,0.0,82,0.00,,---,0.00,0.00,VWS V14.01,2013-03-27 02:44:00,
2013-03-26 22:49:00,27.7,22.9,29.87,WSW,249,0.0,0.0,82,0.00,,---,0.00,0.00,VWS V14.01,2013-03-27 02:49:00,
2013-03-26 22:54:00,27.5,22.7,29.87,WSW,249,0.0,0.0,82,0.00,,---,0.00,0.00,VWS V14.01,2013-03-27 02:54:00,
2013-03-26 22:59:00,27.3,22.5,29.87,WSW,249,0.0,0.0,82,0.00,,---,0.00,0.00,VWS V14.01,2013-03-27 02:59:00,
2013-03-26 23:00:00,27.2,22.7,29.87,WSW,249,0.0,0.0,83,0.00,,---,0.00,0.00,VWS V14.01,2013-03-27 03:00:00,
2013-03-26 23:04:00,27.1,22.6,29.87,WSW,249,0.0,0.0,83,0.00,,---,0.00,0.00,VWS V14.01,2013-03-27 03:04:00,
2013-03-26 23:09:00,27.0,22.5,29.87,WSW,249,0.0,0.0,83,0.00,,---,0.00,0.00,VWS V14.01,2013-03-27 03:09:00,
2013-03-26 23:14:00,26.9,22.7,29.87,WSW,249,0.0,0.0,84,0.00,,---,0.00,0.00,VWS V14.01,2013-03-27 03:14:00,
2013-03-26 23:19:00,26.8,22.9,29.87,WSW,249,0.0,0.0,85,0.00,,---,0.00,0.00,VWS V14.01,2013-03-27 03:19:00,
2013-03-26 23:24:00,26.7,23.1,29.87,WSW,249,0.0,0.0,86,0.00,,---,0.00,0.00,VWS V14.01,2013-03-27 03:24:00,
2013-03-26 23:29:00,26.7,23.1,29.87,WSW,249,0.0,0.0,86,0.00,,---,0.00,0.00,VWS V14.01,2013-03-27 03:29:00,
2013-03-26 23:30:00,26.6,22.7,29.87,WSW,249,0.0,0.0,85,0.00,,---,0.00,0.00,VWS V14.01,2013-03-27 03:30:00,
2013-03-26 23:34:00,26.6,22.7,29.87,WSW,249,0.0,0.0,85,0.00,,---,0.00,0.00,VWS V14.01,2013-03-27 03:34:00,
2013-03-26 23:39:00,26.5,22.6,29.87,WSW,249,0.0,0.0,85,0.00,,---,0.00,0.00,VWS V14.01,2013-03-27 03:39:00,
2013-03-26 23:44:00,26.4,22.5,29.87,WSW,249,0.0,0.0,85,0.00,,---,0.00,0.00,VWS V14.01,2013-03-27 03:44:00,
2013-03-26 23:49:00,26.1,22.2,29.88,WSW,249,0.0,0.0,85,0.00,,---,0.00,0.00,VWS V14.01,2013-03-27 03:49:00,
2013-03-26 23:54:00,25.9,22.3,29.88,WSW,249,0.0,0.0,86,0.00,,---,0.00,0.00,VWS V14.01,2013-03-27 03:54:00,
2013-03-26 23:59:00,25.8,22.2,29.88,WSW,249,0.0,0.0,86,0.00,,---,0.00,0.00,VWS V14.01,2013-03-27 03:59:00,